Temp
10 10 10 10 10 10 10 10 10 10 10 10 10 10 10 10 10 10 10 10 10 10 10 10 10 10 10 10 10 10 10 10 10 10 10 10 10 10 10 10 10 10
10 10 10 10 10 10 10 10 10 10 10 10 10 10 10 10 10 10 10 10 10 10 10 10 10 10 10 10 10 10 10 10 10 10 10 10 10 10 10 10 10 10
10 10 10 10 10 10 10 10 10 10 10 10 10 10 10 10 10 10 10 10 10 10 10 10 10 10 10 10 10 10 10 10 10 10 10 10 10 10 10 10 10 10
10 10 10 10 10 10 10 10 10 10 10 10 10 10 10 10 10 10 10 10 10 10 10 10 10 10 10 10 10 10 10 10 10 10 10 10 10 10 10 10 10 10
10 10 10 10 10 10 10 10 10 10 10 10 10 10 10 10 10 10 10 10 10 10 10 10 10 10 10 10 10 10 10 10 10 10 10 10 10 10 10 10 10 10
10 10 10 10 10 10 10 10 10 10 10 10 10 10 10 10 10 10 10 10 10 10 10 10 10 10 10 10 10 10 10 10 10 10 10 10 10 10 10 10 10 10
10 10 10 10 10 10 10 10 10 10 10 10 10 10 10 10 10 10 10 10 10 10 10 10 10 10 10 10 10 11 11 10 10 11 10 10 10 10 10 10 10 10
10 10 10 10 10 10 10 10 10 10 10 10 10 10 10 10 10 10 10 10 10 10 10 10 10 10 10 10 10 10 10 10 10 11 10 10 10 10 10 10 10 10
10 10 10 10 10 10 10 10 10 10 10 10 10 10 10 10 10 10 10 10 10 10 10 10 10 10 10 10 10 10 10 10 10 10 10 10 10 10 10 10 10 10
10 10 10 10 10 10 10 10 10 10 10 10 10 10 10 10 10 10 10 10 10 10 10 10 10 10 10 10 10 10 10 10 10 10 10 10 10 10 10 10 10 10
10 10 10 10 10 10 10 10 10 10 10 10 10 10 10 10 10 10 10 10 10 10 10 10 10 10 10 10 10 10 10 10 10 10 10 10 10 10 10 10 10 10
10 10 10 10 10 10 10 10 10 10 10 10 10 10 10 10 10 10 10 10 10 10 10 10 10 10 10 10 10 10 10 10 10 10 10 10 10 10 10 10 10 10
10 10 10 10 10 10 10 10 10 10 9 9 9 9 10 10 10 10 11 11 10 10 10 10 10 10 10 10 10 10 10 10 10 10 10 10 10 10 10 10 10 10
9 10 10 10 10 10 10 10 10 10 10 9 9 9 10 10 10 10 10 10 10 10 10 10 10 10 10 10 10 10 10 10 10 10 10 10 10 10 10 10 10 10
10 10 9 9 10 10 10 10 10 10 10 10 10 8 9 10 10 10 10 10 10 10 10 10 10 10 10 10 10 10 10 10 10 10 10 10 10 10 10 10 10 10
10 10 10 9 10 10 10 10 10 10 10 10 10 9 8 9 10 10 10 10 10 11 11 10 10 10 10 10 10 9 9 10 10 10 10 10 10 10 10 10 10 10
10 10 10 10 10 10 10 10 10 10 10 10 10 10 9 9 10 10 10 10 10 10 10 10 10 10 10 10 10 9 9 10 10 10 10 9 10 10 10 10 10 10
10 10 10 10 10 10 10 10 10 10 10 10 11 11 11 10 10 10 10 10 10 10 10 10 10 10 9 9 9 9 9 10 10 10 10 9 9 9 10 9 9 9
10 10 10 10 10 10 10 10 10 10 10 10 10 11 11 10 10 9 9 10 10 10 10 10 11 10 9 9 9 9 9 9 10 10 10 9 9 9 10 9 9 9
10 10 10 10 10 10 10 10 10 10 10 10 11 10 10 10 10 10 10 10 10 10 10 10 10 9 9 9 9 9 9 9 9 9 10 9 9 9 10 10 9 9
9 9 9 9 9 9 9 9 10 10 10 10 11 10 10 10 10 10 10 10 10 9 9 10 10 9 9 9 9 9 9 9 9 9 10 10 9 9 9 9 9 9
9 9 9 9 9 9 9 9 9 10 10 10 10 10 10 10 10 10 10 10 9 9 9 9 9 9 9 9 9 9 9 9 9 10 10 10 9 9 9 9 9 9
9 9 9 9 9 9 9 9 9 9 9 9 9 9 10 10 10 10 9 9 9 9 9 9 9 9 9 9 9 9 9 9 9 10 9 9 9 9 9 9 9 9
10 9 9 9 9 9 9 9 9 9 9 8 8 9 9 9 9 9 9 9 9 9 9 9 9 9 9 9 9 9 8 8 9 9 9 8 8 8 9 9 9 9
10 10 9 9 8 8 9 9 9 9 8 8 8 8 8 9 9 9 9 9 9 8 8 9 9 9 9 9 9 8 8 8 8 8 9 9 8 8 8 8 8 9
9 9 9 9 9 8 8 9 9 9 9 8 8 8 8 8 9 9 9 9 9 8 8 8 8 8 8 9 9 8 8 8 8 8 8 8 8 8 8 8 8 8
Height
3209 3210 3211 3212 3213 3214 3215 3216 3217 3218 3219 3219 3220 3221 3221 3222 3222 3222 3223 3223 3223 3223 3224 3224 3224 3225 3225 3225 3225 3225 3226 3226 3226 3227 3227 3227 3227 3227 3227 3228 3228 3228
3208 3210 3211 3211 3213 3214 3215 3216 3217 3217 3218 3219 3220 3220 3221 3221 3222 3222 3222 3223 3223 3223 3224 3224 3224 3224 3224 3224 3225 3225 3225 3225 3225 3225 3226 3226 3226 3226 3226 3227 3227 3227
3208 3209 3210 3211 3212 3213 3214 3215 3216 3217 3218 3218 3219 3220 3220 3221 3221 3221 3222 3222 3223 3223 3223 3224 3224 3224 3224 3224 3224 3224 3224 3225 3225 3225 3225 3225 3225 3226 3226 3226 3226 3226
3207 3208 3210 3211 3212 3213 3214 3214 3215 3216 3217 3218 3218 3219 3219 3220 3220 3221 3221 3222 3222 3222 3223 3223 3223 3224 3224 3224 3224 3224 3224 3224 3224 3224 3224 3225 3225 3225 3225 3225 3225 3225
3206 3207 3209 3210 3211 3212 3213 3214 3215 3215 3216 3217 3218 3218 3219 3219 3220 3220 3221 3221 3221 3222 3222 3222 3223 3223 3223 3223 3223 3223 3224 3224 3224 3224 3224 3224 3224 3224 3225 3224 3225 3225
3205 3206 3207 3209 3210 3211 3212 3213 3213 3214 3215 3216 3217 3217 3218 3218 3219 3219 3220 3220 3221 3221 3221 3222 3222 3222 3222 3222 3223 3223 3223 3223 3223 3223 3223 3224 3224 3224 3224 3224 3224 3224
3204 3205 3206 3207 3208 3209 3210 3211 3212 3213 3214 3215 3216 3216 3217 3217 3218 3218 3219 3219 3220 3220 3220 3221 3221 3221 3221 3221 3222 3222 3222 3223 3222 3223 3223 3223 3223 3223 3223 3223 3223 3224
3203 3204 3205 3206 3207 3208 3209 3210 3211 3212 3213 3214 3214 3215 3215 3216 3216 3217 3217 3218 3218 3219 3219 3220 3220 3220 3220 3220 3221 3221 3221 3222 3222 3222 3222 3222 3222 3223 3223 3223 3223 3223
3201 3202 3204 3205 3206 3207 3208 3209 3210 3210 3211 3212 3213 3214 3214 3214 3215 3215 3216 3216 3217 3217 3217 3218 3218 3219 3219 3219 3219 3220 3220 3220 3221 3221 3221 3221 3222 3222 3222 3222 3222 3222
3200 3201 3202 3203 3205 3206 3207 3208 3208 3209 3210 3210 3211 3212 3212 3212 3213 3213 3213 3214 3215 3215 3215 3216 3217 3217 3217 3218 3218 3218 3219 3219 3219 3219 3219 3220 3220 3221 3221 3221 3221 3222
3198 3199 3200 3201 3203 3204 3205 3207 3207 3208 3208 3209 3210 3210 3210 3211 3210 3211 3211 3212 3213 3213 3213 3214 3215 3215 3216 3216 3216 3217 3217 3217 3217 3218 3218 3218 3219 3219 3220 3220 3220 3221
3196 3197 3198 3199 3200 3201 3203 3204 3205 3206 3206 3206 3207 3208 3209 3209 3209 3209 3209 3210 3211 3212 3212 3212 3213 3213 3214 3214 3215 3215 3215 3215 3216 3216 3216 3217 3217 3218 3218 3218 3219 3219
3194 3195 3196 3198 3199 3200 3200 3201 3202 3204 3204 3205 3205 3205 3206 3207 3207 3207 3207 3208 3209 3210 3210 3211 3211 3211 3211 3212 3212 3213 3213 3214 3214 3214 3215 3215 3215 3216 3216 3217 3217 3217
3192 3193 3194 3196 3197 3198 3200 3200 3200 3200 3201 3202 3202 3203 3204 3205 3205 3206 3206 3206 3207 3208 3208 3209 3209 3209 3209 3209 3210 3210 3211 3211 3212 3212 3213 3213 3214 3214 3215 3215 3215 3215
3189 3191 3192 3193 3193 3195 3197 3199 3200 3199 3199 3199 3198 3198 3200 3202 3203 3204 3204 3205 3205 3206 3207 3207 3207 3207 3206 3206 3206 3207 3208 3208 3209 3210 3211 3211 3212 3212 3213 3213 3213 3213
3186 3188 3189 3189 3190 3191 3193 3195 3196 3197 3198 3199 3199 3197 3196 3198 3199 3201 3203 3204 3204 3204 3205 3205 3204 3203 3202 3203 3205 3205 3205 3205 3206 3207 3208 3209 3210 3210 3210 3211 3211 3211
3183 3185 3185 3186 3187 3188 3190 3191 3192 3194 3195 3197 3198 3198 3197 3197 3197 3199 3202 3203 3202 3202 3203 3202 3200 3199 3200 3202 3204 3205 3204 3204 3205 3205 3206 3207 3207 3207 3208 3209 3209 3209
3179 3181 3181 3182 3183 3185 3186 3187 3188 3190 3191 3192 3194 3195 3197 3197 3197 3198 3199 3200 3201 3201 3200 3196 3195 3197 3199 3200 3201 3202 3203 3203 3203 3203 3203 3204 3204 3205 3206 3206 3207 3207
3175 3176 3177 3178 3179 3180 3182 3183 3184 3185 3186 3188 3189 3191 3193 3194 3196 3197 3196 3196 3197 3196 3192 3191 3193 3196 3199 3199 3199 3199 3200 3201 3201 3201 3201 3201 3201 3202 3203 3204 3204 3205
3170 3171 3172 3174 3175 3176 3177 3178 3179 3181 3182 3183 3185 3187 3188 3190 3193 3195 3195 3195 3195 3192 3189 3192 3195 3196 3197 3198 3197 3197 3198 3198 3199 3199 3199 3198 3197 3199 3201 3202 3202 3203
3166 3167 3168 3170 3171 3172 3173 3174 3175 3177 3178 3179 3180 3182 3184 3186 3188 3190 3192 3192 3193 3192 3191 3192 3194 3194 3195 3196 3196 3196 3196 3196 3197 3197 3197 3197 3196 3196 3197 3199 3200 3200
3163 3164 3165 3166 3167 3168 3169 3170 3172 3173 3174 3174 3176 3177 3180 3182 3184 3186 3188 3188 3189 3189 3189 3189 3191 3192 3193 3193 3194 3194 3194 3194 3194 3194 3194 3194 3194 3194 3195 3196 3197 3197
3160 3161 3161 3162 3163 3163 3164 3165 3167 3168 3169 3170 3171 3173 3175 3177 3179 3182 3184 3185 3185 3185 3186 3187 3188 3189 3190 3191 3191 3191 3191 3191 3191 3191 3191 3191 3191 3193 3194 3194 3194 3194
3157 3157 3157 3158 3157 3158 3159 3161 3162 3162 3163 3164 3166 3168 3171 3173 3175 3178 3180 3180 3181 3182 3183 3184 3185 3186 3187 3188 3188 3188 3188 3189 3188 3189 3189 3189 3191 3192 3192 3192 3192 3191
3153 3153 3154 3154 3154 3155 3156 3157 3157 3157 3158 3159 3161 3164 3167 3169 3171 3173 3175 3176 3178 3179 3179 3180 3182 3183 3184 3184 3184 3185 3186 3186 3186 3186 3187 3188 3189 3190 3191 3191 3190 3189
3151 3151 3152 3152 3152 3153 3154 3154 3153 3153 3153 3156 3160 3162 3164 3165 3167 3169 3171 3173 3174 3175 3176 3177 3179 3180 3180 3180 3181 3181 3182 3182 3182 3183 3185 3187 3187 3187 3188 3187 3187 3187
Wind_Speed
12 11 11 11 12 12 12 12 12 12 12 12 12 12 12 12 12 12 11 11 11 11 12 11 10 10 10 9 9 8 8 8 9 9 10 11 11 12 12 12 12 12
13 12 12 12 12 12 12 12 12 12 12 12 12 12 12 13 13 12 12 11 11 11 12 12 12 11 11 10 9 9 8 8 8 9 9 10 10 11 11 11 12 12
14 13 13 13 12 12 12 12 12 12 12 12 13 13 13 13 13 13 13 13 12 12 12 12 12 12 12 11 10 10 9 8 9 10 9 9 10 11 10 10 11 11
15 14 13 14 14 13 14 13 13 13 12 13 13 13 13 13 14 13 13 14 13 13 12 12 12 12 12 12 11 11 11 10 10 11 10 10 10 10 10 10 10 11
15 15 14 15 15 15 15 15 14 14 14 14 14 14 14 14 14 13 13 14 13 14 14 13 13 13 13 13 12 12 12 11 11 11 11 10 10 9 10 10 11 11
15 16 15 16 16 16 16 16 16 16 16 16 16 16 16 15 15 15 14 14 14 14 15 15 15 14 14 14 13 13 13 12 12 12 10 11 11 11 11 11 11 11
16 16 16 16 16 17 17 17 17 17 17 17 17 18 18 17 17 16 16 16 15 16 16 16 16 16 15 15 14 14 14 14 14 13 11 12 12 12 12 13 12 11
16 16 16 17 17 17 17 17 17 17 17 17 18 18 19 19 18 18 18 18 17 17 17 17 18 17 16 16 16 15 15 15 15 14 13 13 13 13 13 13 13 12
18 17 17 17 17 17 17 17 18 18 18 18 18 19 20 20 20 20 20 20 19 20 19 19 19 19 19 18 18 17 16 16 16 15 14 13 13 14 14 13 13 12
19 18 18 17 17 18 18 18 18 19 19 19 19 20 21 22 22 22 23 22 21 21 21 20 21 20 20 19 19 19 18 17 17 17 16 15 15 15 14 14 13 13
20 20 20 19 18 18 18 18 19 19 20 20 20 20 21 23 23 24 24 24 23 22 22 22 21 21 21 20 20 20 19 19 18 19 18 17 17 16 16 15 15 14
21 23 23 22 21 21 19 19 20 20 21 22 22 21 22 22 24 24 24 24 23 23 23 23 22 22 22 21 21 21 21 20 20 20 19 18 18 17 17 16 16 16
22 24 23 23 23 22 21 21 21 21 22 22 22 23 23 22 22 23 23 22 22 22 23 23 23 23 23 22 22 22 21 21 21 21 20 19 19 18 17 16 16 17
24 23 23 23 24 24 23 23 24 23 23 24 25 24 24 21 21 23 22 21 21 21 22 23 23 23 24 24 23 22 22 22 21 21 20 20 19 18 16 17 17 17
26 24 23 24 25 26 25 25 26 25 26 28 27 25 24 23 21 22 22 22 22 21 21 22 23 23 24 26 24 22 23 23 22 21 20 20 20 18 17 17 18 18
30 28 27 27 27 27 26 25 26 27 28 29 26 24 25 25 22 21 21 22 22 21 20 21 23 24 26 26 23 21 22 22 21 20 19 20 20 18 17 17 18 18
33 31 31 31 30 29 28 26 26 27 28 30 30 28 25 24 22 22 22 23 22 21 21 22 25 26 25 22 20 20 21 20 20 20 20 21 20 18 17 17 17 18
35 34 34 34 33 32 31 29 27 27 27 28 29 30 29 26 24 23 24 24 24 23 24 26 27 25 22 19 17 19 21 20 20 21 22 22 20 17 17 17 17 18
36 36 37 37 36 35 33 32 31 29 28 27 26 26 27 28 29 28 27 25 25 28 29 29 27 24 21 20 19 18 19 20 20 20 22 22 19 17 18 18 17 18
37 38 38 38 37 37 36 35 34 32 31 29 28 26 25 27 30 32 30 27 27 30 30 28 26 23 22 22 22 20 19 20 21 21 21 22 20 19 20 19 19 19
35 36 37 37 37 37 37 36 36 35 34 33 31 29 28 29 31 32 31 29 28 29 30 28 26 24 23 23 23 22 22 22 23 23 23 24 23 23 22 21 21 21
32 33 34 34 36 37 37 37 36 36 36 36 34 33 33 33 34 32 31 31 30 29 29 29 27 26 25 24 24 26 26 26 26 26 26 26 25 25 24 23 23 23
32 31 30 29 33 36 37 37 37 37 39 39 37 36 35 35 35 34 33 32 30 29 29 28 28 27 26 25 26 27 28 28 28 29 28 27 26 27 27 25 25 25
29 30 28 28 30 32 33 36 38 39 40 41 40 37 35 35 35 35 35 34 31 29 29 29 29 28 27 27 27 28 29 28 30 31 30 28 26 24 25 26 25 25
24 25 25 26 27 28 29 32 37 40 41 41 40 38 35 34 34 33 35 36 33 30 30 30 29 27 28 28 29 29 29 29 31 33 32 31 28 24 22 23 24 25
21 22 21 22 22 23 26 27 29 36 40 38 36 35 34 34 34 33 33 36 35 33 32 31 30 29 29 30 30 29 29 30 33 32 29 29 30 28 26 27 27 25
Wind_Direction
206 202 201 203 207 210 211 214 217 220 223 225 228 229 231 233 233 234 236 236 236 236 235 235 238 238 240 240 240 246 246 245 253 252 247 249 246 247 250 251 255 261
214 210 207 207 211 214 216 219 222 225 228 229 231 233 234 237 239 238 241 243 242 242 240 240 243 243 245 247 247 250 250 250 255 254 251 253 250 248 250 252 255 259
216 215 213 214 216 219 220 223 226 227 231 233 235 238 240 242 244 243 244 246 247 247 245 244 247 247 248 250 251 253 254 253 255 258 257 254 252 250 251 254 258 261
216 214 215 217 218 221 223 225 229 232 234 237 239 241 242 244 246 247 246 245 247 248 249 249 251 252 253 254 254 254 255 257 256 256 257 254 252 253 254 256 258 261
218 216 215 219 222 225 227 228 230 233 236 239 241 243 244 245 247 249 249 249 249 251 252 254 256 257 258 258 258 258 258 259 259 258 258 258 259 258 257 259 260 261
220 220 219 222 225 228 232 233 233 234 236 239 241 244 245 246 248 249 252 253 253 253 254 257 259 259 261 260 259 260 260 259 261 261 260 261 261 260 261 263 264 264
223 225 225 226 229 231 233 236 237 237 237 239 240 243 245 246 248 248 250 253 253 254 255 257 259 259 260 262 261 260 260 259 261 263 259 258 260 260 263 265 267 267
225 227 229 230 232 234 235 237 240 241 241 243 244 245 247 248 249 248 248 250 251 252 252 253 256 258 259 261 262 263 262 259 260 262 260 258 260 261 263 265 268 269
225 227 232 234 234 237 238 240 242 243 243 245 247 249 249 247 247 248 247 247 247 248 249 250 253 255 257 260 261 261 262 261 261 262 262 260 261 263 264 266 269 270
226 227 230 235 238 240 240 241 243 245 246 245 245 248 250 248 246 245 246 247 245 245 247 248 250 253 254 256 259 259 258 258 259 260 262 262 262 264 265 267 270 272
229 230 229 230 233 237 241 243 243 245 248 248 245 244 247 249 248 246 246 246 246 245 246 247 248 251 252 252 254 257 257 256 256 258 260 262 264 266 268 270 272 272
231 233 232 230 230 230 232 238 243 246 249 250 247 244 244 248 251 250 248 248 247 245 246 247 247 248 249 250 251 253 255 255 255 256 258 261 264 267 270 274 275 273
236 239 240 239 239 236 230 230 235 240 245 248 249 247 243 244 251 255 253 251 249 247 247 247 247 246 246 246 247 249 251 253 255 258 261 263 265 266 268 270 271 270
240 243 246 247 248 248 243 239 237 235 237 239 240 244 248 245 246 253 257 255 250 249 248 249 249 249 248 247 245 245 247 250 253 256 260 263 264 264 263 263 264 265
242 243 246 249 251 252 252 251 248 244 243 239 230 230 241 247 245 248 254 256 254 250 249 251 253 252 250 248 244 242 244 248 250 252 255 258 260 260 260 261 263 265
245 244 244 247 251 254 255 254 250 248 249 249 243 232 232 238 244 247 251 255 257 256 252 251 252 253 253 252 249 245 244 246 250 252 252 253 254 255 257 260 263 264
245 246 247 249 250 253 256 256 254 250 247 251 256 256 250 243 241 244 249 252 255 258 256 252 249 249 253 259 261 258 252 249 252 255 255 254 253 254 256 258 261 263
245 245 247 249 250 251 253 254 256 255 252 252 255 261 264 258 247 241 243 246 251 254 253 252 252 250 249 252 255 257 257 254 253 256 257 255 252 253 256 256 259 262
244 244 245 246 247 247 248 250 252 252 254 257 257 259 263 262 257 250 242 237 241 245 244 246 253 257 256 255 252 250 251 252 252 255 259 258 255 254 257 258 260 262
247 247 246 245 245 245 246 247 249 250 251 254 256 259 260 260 260 260 252 238 235 243 245 247 252 255 254 257 255 249 247 248 251 255 259 261 260 257 257 259 262 264
250 249 248 245 245 246 246 247 248 249 250 250 251 253 253 253 256 260 259 248 240 245 250 252 253 254 253 256 258 256 253 252 252 254 257 259 260 258 257 258 261 263
254 255 253 249 247 247 248 248 249 249 249 248 247 246 245 247 250 252 255 255 249 248 250 251 253 256 257 257 258 258 257 256 256 256 256 256 258 259 259 258 257 260
260 261 261 258 254 251 248 248 248 248 247 245 244 244 242 243 245 245 249 255 253 250 251 254 255 257 259 260 260 259 258 258 257 257 256 257 257 258 260 259 257 257
263 263 262 260 256 253 250 248 247 246 243 241 242 243 242 241 241 240 243 250 253 252 253 256 257 259 263 264 262 261 259 259 260 260 262 264 264 260 257 256 256 257
263 262 261 258 255 254 253 251 250 248 243 240 240 241 241 241 240 237 239 245 250 254 256 258 260 265 267 267 266 264 262 261 262 262 262 264 266 266 264 261 260 262
262 264 264 262 261 258 253 253 257 253 245 240 242 243 243 244 243 239 238 242 247 252 256 259 262 265 268 269 270 269 268 267 266 265 265 265 267 272 276 275 272 271